When you browse on this site, cookies collect data to enhance your experience and personalize the content and advertising you see.
Visit our Privacy Policy to learn more. By continuing to use the site, you agree to this use of cookies and data.
  • In Denmark
  • List of Countries
  • For 7 days
  • Water Temperature
  • Satellite Maps
  • Weather Map
  • Weather Widgets
  • user-avatar
    Login

    Hourly Weather Melbourne

    Today, 18 January, Friday

    Time Temperature Precipitation Wind Pressure Humidity
    00:00 +27°C° 0.8 mm 3 mps 755 mmHg 68%
    01:00 +26°C° 0.8 mm 3 mps 755 mmHg 74%
    02:00 +26°C° 0 mm 4 mps 754 mmHg 72%
    03:00 +27°C° 0 mm 4 mps 754 mmHg 70%
    04:00 +26°C° 0 mm 3 mps 754 mmHg 72%
    05:00 +27°C° 1 mm 3 mps 754 mmHg 72%
    06:00 +27°C° 1 mm 3 mps 754 mmHg 72%
    07:00 +27°C° 1 mm 2 mps 754 mmHg 71%
    08:00 +29°C° 0 mm 3 mps 754 mmHg 63%
    09:00 +31°C° 0 mm 3 mps 754 mmHg 54%
    10:00 +35°C° 0 mm 3 mps 754 mmHg 45%
    11:00 +34°C° 0.2 mm 3 mps 754 mmHg 46%
    12:00 +34°C° 0.2 mm 4 mps 754 mmHg 47%
    13:00 +34°C° 0.2 mm 5 mps 754 mmHg 48%
    14:00 +32°C° 0.5 mm 4 mps 754 mmHg 55%
    15:00 +29°C° 0.5 mm 4 mps 754 mmHg 62%
    16:00 +27°C° 0.5 mm 3 mps 754 mmHg 69%
    17:00 +26°C° 0.2 mm 4 mps 755 mmHg 73%
    18:00 +23°C° 0.2 mm 4 mps 755 mmHg 76%
    19:00 +22°C° 0.2 mm 4 mps 756 mmHg 80%
    20:00 +22°C° 0 mm 4 mps 757 mmHg 74%
    21:00 +22°C° 0 mm 3 mps 758 mmHg 69%
    22:00 +21°C° 0 mm 2 mps 759 mmHg 63%
    23:00 +21°C° 0.1 mm 3 mps 759 mmHg 66%

    Tomorrow, 19 January, Saturday

    Time Temperature Precipitation Wind Pressure Humidity
    00:00 +20°C° 0.1 mm 3 mps 760 mmHg 69%
    01:00 +20°C° 0.1 mm 4 mps 761 mmHg 71%
    02:00 +19°C° 0.1 mm 3 mps 761 mmHg 70%
    03:00 +19°C° 0.1 mm 3 mps 761 mmHg 68%
    04:00 +18°C° 0.1 mm 3 mps 761 mmHg 66%
    05:00 +18°C° 0 mm 3 mps 762 mmHg 64%
    06:00 +19°C° 0 mm 3 mps 762 mmHg 61%
    07:00 +19°C° 0 mm 3 mps 763 mmHg 59%
    08:00 +20°C° 0 mm 3 mps 763 mmHg 55%
    09:00 +21°C° 0 mm 3 mps 763 mmHg 51%
    10:00 +22°C° 0 mm 3 mps 764 mmHg 47%
    11:00 +24°C° 0 mm 3 mps 763 mmHg 44%
    12:00 +25°C° 0 mm 4 mps 763 mmHg 41%
    13:00 +26°C° 0 mm 4 mps 763 mmHg 38%
    14:00 +26°C° 0 mm 4 mps 763 mmHg 38%
    15:00 +26°C° 0 mm 4 mps 763 mmHg 37%
    16:00 +26°C° 0 mm 4 mps 763 mmHg 37%
    17:00 +25°C° 0 mm 4 mps 763 mmHg 41%
    18:00 +23°C° 0 mm 5 mps 763 mmHg 46%
    19:00 +21°C° 0 mm 5 mps 763 mmHg 50%
    20:00 +20°C° 0 mm 4 mps 764 mmHg 55%
    21:00 +19°C° 0 mm 4 mps 764 mmHg 61%
    22:00 +18°C° 0 mm 3 mps 764 mmHg 66%
    23:00 +18°C° 0 mm 3 mps 764 mmHg 69%

    Day after tomorrow, 20 January, Sunday

    Time Temperature Precipitation Wind Pressure Humidity
    00:00 +18°C° 0 mm 3 mps 764 mmHg 72%
    01:00 +17°C° 0 mm 2 mps 764 mmHg 74%
    02:00 +17°C° 0 mm 2 mps 764 mmHg 76%
    03:00 +17°C° 0 mm 2 mps 764 mmHg 78%
    04:00 +17°C° 0 mm 2 mps 764 mmHg 80%
    05:00 +17°C° 0 mm 2 mps 764 mmHg 78%
    06:00 +18°C° 0 mm 2 mps 764 mmHg 75%
    07:00 +18°C° 0 mm 2 mps 765 mmHg 73%
    08:00 +20°C° 0 mm 2 mps 764 mmHg 65%
    09:00 +23°C° 0 mm 2 mps 764 mmHg 58%
    10:00 +25°C° 0 mm 3 mps 764 mmHg 51%
    11:00 +26°C° 0 mm 3 mps 764 mmHg 47%
    12:00 +28°C° 0 mm 4 mps 763 mmHg 44%
    13:00 +29°C° 0 mm 4 mps 763 mmHg 41%
    14:00 +29°C° 0 mm 4 mps 763 mmHg 43%
    15:00 +29°C° 0 mm 5 mps 762 mmHg 45%
    16:00 +29°C° 0 mm 5 mps 762 mmHg 47%
    17:00 +27°C° 0 mm 5 mps 762 mmHg 53%
    18:00 +26°C° 0 mm 5 mps 762 mmHg 58%
    19:00 +23°C° 0 mm 4 mps 762 mmHg 64%
    20:00 +22°C° 0 mm 4 mps 763 mmHg 69%
    21:00 +21°C° 0 mm 3 mps 763 mmHg 74%
    22:00 +20°C° 0 mm 3 mps 763 mmHg 80%
    23:00 +20°C° 0 mm 3 mps 763 mmHg 83%

    21 January, Monday

    Time Temperature Precipitation Wind Pressure Humidity
    00:00 +19°C° 0 mm 3 mps 763 mmHg 86%
    01:00 +19°C° 0 mm 3 mps 762 mmHg 89%
    02:00 +18°C° 0 mm 2 mps 762 mmHg 89%
    03:00 +18°C° 0 mm 2 mps 762 mmHg 89%
    04:00 +18°C° 0 mm 2 mps 762 mmHg 90%
    05:00 +19°C° 0 mm 2 mps 762 mmHg 87%
    06:00 +20°C° 0 mm 1 mps 762 mmHg 85%
    07:00 +20°C° 0 mm 1 mps 762 mmHg 83%
    08:00 +23°C° 0 mm 1 mps 762 mmHg 73%
    09:00 +25°C° 0 mm 1 mps 761 mmHg 63%
    10:00 +28°C° 0 mm 1 mps 761 mmHg 53%
    11:00 +29°C° 0 mm 2 mps 760 mmHg 49%
    12:00 +31°C° 0 mm 2 mps 760 mmHg 45%
    13:00 +34°C° 0 mm 3 mps 759 mmHg 40%
    14:00 +33°C° 0 mm 4 mps 759 mmHg 42%
    15:00 +33°C° 0 mm 4 mps 758 mmHg 44%
    16:00 +32°C° 0 mm 5 mps 758 mmHg 45%
    17:00 +30°C° 0 mm 5 mps 758 mmHg 48%
    18:00 +28°C° 0 mm 4 mps 759 mmHg 52%
    19:00 +27°C° 0 mm 4 mps 759 mmHg 55%
    20:00 +25°C° 0 mm 3 mps 759 mmHg 60%
    21:00 +24°C° 0 mm 3 mps 760 mmHg 66%
    22:00 +22°C° 0 mm 3 mps 760 mmHg 71%
    23:00 +21°C° 0 mm 2 mps 760 mmHg 74%

    22 January, Tuesday

    Time Temperature Precipitation Wind Pressure Humidity
    00:00 +21°C° 0 mm 2 mps 760 mmHg 76%
    01:00 +21°C° 0 mm 1 mps 759 mmHg 79%
    02:00 +21°C° 0 mm 1 mps 759 mmHg 81%
    03:00 +21°C° 0 mm 1 mps 759 mmHg 82%
    04:00 +20°C° 0 mm 1 mps 759 mmHg 84%
    05:00 +19°C° 0 mm 0 mps 759 mmHg 80%
    06:00 +20°C° 0 mm 0 mps 759 mmHg 76%
    07:00 +21°C° 0 mm 0 mps 759 mmHg 73%
    08:00 +23°C° 0 mm 0 mps 759 mmHg 63%
    09:00 +28°C° 0 mm 1 mps 759 mmHg 54%
    10:00 +31°C° 0 mm 1 mps 759 mmHg 45%
    11:00 +34°C° 0 mm 2 mps 758 mmHg 40%
    12:00 +35°C° 0 mm 2 mps 757 mmHg 36%
    13:00 +37°C° 0 mm 3 mps 757 mmHg 31%
    14:00 +37°C° 0 mm 3 mps 756 mmHg 29%
    15:00 +37°C° 0 mm 4 mps 756 mmHg 28%
    16:00 +37°C° 0 mm 4 mps 756 mmHg 26%
    17:00 +35°C° 0 mm 5 mps 756 mmHg 29%
    18:00 +33°C° 0 mm 5 mps 756 mmHg 31%
    19:00 +30°C° 0 mm 6 mps 757 mmHg 34%
    20:00 +28°C° 0 mm 4 mps 758 mmHg 41%
    21:00 +26°C° 0 mm 3 mps 758 mmHg 49%
    22:00 +24°C° 0 mm 1 mps 759 mmHg 56%
    23:00 +23°C° 0 mm 1 mps 759 mmHg 59%

    23 January, Wednesday

    Time Temperature Precipitation Wind Pressure Humidity
    00:00 +23°C° 0 mm 1 mps 758 mmHg 61%
    01:00 +22°C° 0 mm 1 mps 758 mmHg 63%
    02:00 +22°C° 0 mm 1 mps 758 mmHg 67%
    03:00 +20°C° 0 mm 2 mps 758 mmHg 70%
    04:00 +20°C° 0 mm 2 mps 758 mmHg 74%
    05:00 +20°C° 0 mm 2 mps 758 mmHg 74%
    06:00 +22°C° 0 mm 1 mps 759 mmHg 73%
    07:00 +22°C° 0 mm 1 mps 759 mmHg 73%
    08:00 +24°C° 0 mm 2 mps 759 mmHg 64%
    09:00 +26°C° 0 mm 2 mps 759 mmHg 56%
    10:00 +28°C° 0 mm 3 mps 759 mmHg 48%
    11:00 +28°C° 0 mm 4 mps 758 mmHg 50%
    12:00 +28°C° 0 mm 4 mps 758 mmHg 52%
    13:00 +28°C° 0 mm 5 mps 758 mmHg 54%
    14:00 +27°C° 0 mm 5 mps 758 mmHg 53%
    15:00 +27°C° 0 mm 5 mps 758 mmHg 53%
    16:00 +27°C° 0 mm 5 mps 757 mmHg 52%
    17:00 +26°C° 0 mm 5 mps 758 mmHg 55%
    18:00 +25°C° 0 mm 4 mps 758 mmHg 58%
    19:00 +23°C° 0 mm 4 mps 758 mmHg 61%
    20:00 +22°C° 0 mm 4 mps 759 mmHg 66%
    21:00 +20°C° 0 mm 3 mps 759 mmHg 70%
    22:00 +19°C° 0 mm 3 mps 759 mmHg 75%
    23:00 +18°C° 0 mm 3 mps 759 mmHg 77%
    Show more